SCP
0 0 0 0 0 0 0 0 0 0 0 0 0 0 0 0 0 0 0 0 0 0 0 0 0 0 0 0 0 0 0 0 0 0 0 0 0 0 0 0 0 0 0
0 0 0 0 0 0 0 0 0 0 0 0 0 0 0 0 0 0 0 0 0 0 0 0 0 0 0 0 0 0 0 0 0 0 0 0 0 0 0 0 0 0 0
0 0 0 0 0 0 0 0 0 0 0 0 0 0 0 0 0 0 0 0 0 0 0 0 0 0 0 0 0 0 0 0 0 0 0 0 0 0 0 0 0 0 0
0 0 0 0 0 0 0 0 0 0 0 0 0 0 0 0 0 0 0 0 0 0 0 0 0 0 0 0 0 0 0 0 0 0 0 0 0 0 0 0 0 0 0
0 0 0 0 0 0 0 0 0 0 0 0 0 0 0 0 0 0 0 0 0 0 0 0 0 0 0 0 0 0 0 0 0 0 0 0 0 0 0 0 0 0 0
0 0 0 0 0 0 0 0 0 0 0 0 0 0 0 0 0 0 0 0 0 0 0 0 0 0 0 0 0 0 0 0 0 0 0 0 0 0 0 0 0 0 0
0 0 0 0 0 0 0 0 0 0 0 0 0 0 0 0 0 0 0 0 0 0 0 0 0 0 0 0 0 0 0 0 0 0 0 0 0 0 0 0 0 0 0
0 0 0 0 0 0 0 0 0 0 0 0 0 0 0 0 0 0 0 0 0 0 0 0 0 0 0 0 0 0 0 0 0 0 0 0 0 0 0 0 0 0 0
0 0 0 0 0 0 0 0 0 0 0 0 0 0 0 0 0 0 0 0 0 0 0 0 0 0 0 0 0 0 0 0 0 0 0 0 0 0 0 0 0 0 0
0 0 0 0 0 0 0 0 0 0 0 0 0 0 0 0 0 0 0 0 0 0 0 0 0 0 0 0 0 0 0 0 0 0 0 0 0 0 0 0 0 0 0
0 0 0 0 0 0 0 0 0 0 0 0 0 0 0 0 0 0 0 0 0 0 0 0 0 0 0 0 0 0 0 0 0 0 0 0 0 0 0 0 0 0 0
0 0 0 0 0 0 0 0 0 0 0 0 0 0 0 0 0 0 0 0 0 0 0 0 0 0 0 0 0 0 0 0 0 0 0 0 0 0 0 0 0 0 0
0 0 0 0 0 0 0 0 0 0 0 0 0 0 0 0 0 0 0 0 0 0 0 0 0 0 0 0 0 0 0 0 0 0 0 0 0 0 0 0 0 0 0
0 0 0 0 0 0 0 0 0 0 0 0 0 0 0 0 0 0 0 0 0 0 0 0 0 0 0 0 0 0 0 0 0 0 0 0 0 0 0 0 0 0 0
0 0 0 0 0 0 0 0 0 0 0 0 0 0 0 0 0 0 0 0 0 0 0 0 0 0 0 0 0 0 0 0 0 0 0 0 0 0 0 0 0 0 0
0 0 0 0 0 0 0 0 0 0 0 0 0 0 0 0 0 0 0 0 0 0 0 0 0 0 0 0 0 0 0 0 0 0 0 0 0 0 0 0 0 0 0
0 0 0 0 0 0 0 0 0 0 0 0 0 0 0 0 0 0 0 0 0 0 0 0 0 0 0 0 0 0 0 0 0 0 0 0 0 0 0 0 0 0 0
0 0 0 0 0 0 0 0 0 0 0 0 0 0 0 0 0 0 0 0 0 0 0 0 0 0 0 0 0 0 0 0 0 0 0 0 0 0 0 0 0 0 0
0 0 0 0 0 0 0 0 0 0 0 0 0 0 0 0 0 0 0 0 0 0 0 0 0 0 0 0 0 0 0 0 0 0 0 0 0 0 0 0 0 0 0
0 0 0 0 0 0 0 0 0 0 0 0 0 0 0 0 0 0 0 0 0 0 0 0 0 0 0 0 0 0 0 0 0 0 0 0 0 0 0 0 0 0 0
0 0 0 0 0 0 0 0 0 0 0 0 0 0 0 0 0 0 0 0 0 0 0 0 0 0 0 0 0 0 0 0 0 0 0 0 0 0 0 0 0 0 0
0 0 0 0 0 0 0 0 0 0 0 0 0 0 0 0 0 0 0 0 0 0 0 0 0 0 0 0 0 0 0 0 0 0 0 0 0 0 0 0 0 0 0
0 0 0 0 0 0 0 0 0 0 0 0 0 0 0 0 0 0 0 0 0 0 0 0 0 0 0 0 0 0 0 0 0 0 0 0 0 0 0 0 0 0 0
0 0 0 0 0 0 0 0 0 0 0 0 0 0 0 0 0 0 0 0 0 0 0 0 0 0 0 0 0 0 0 0 0 0 0 0 0 0 0 0 0 0 0
0 0 0 0 0 0 0 0 0 0 0 0 0 0 0 0 0 0 0 0 0 0 0 0 0 0 0 0 0 0 0 0 0 0 0 0 0 0 0 0 0 0 0
0 0 0 0 0 0 0 0 0 0 0 0 0 0 0 0 0 0 0 0 0 0 0 0 0 0 0 0 0 0 0 0 0 0 0 0 0 0 0 0 0 0 0
Wind_Speed
4 4 5 5 6 7 7 7 7 8 8 9 9 10 10 10 10 9 11 11 11 11 11 12 12 12 10 9 8 8 8 8 9 8 7 5 5 5 4 3 4 4 5
4 4 5 6 6 7 8 8 8 8 9 10 10 10 11 11 10 11 12 11 12 12 12 12 12 11 12 11 9 10 9 8 9 10 8 6 6 5 4 4 3 3 3
4 5 6 6 7 7 8 8 8 9 10 10 10 11 11 11 11 11 12 12 12 12 12 12 13 12 12 11 11 11 10 9 9 9 9 6 5 4 4 4 3 1 2
5 6 6 7 7 8 8 9 9 9 10 10 11 11 11 11 11 11 12 12 12 13 13 13 13 13 13 12 11 12 11 11 10 10 9 7 5 5 5 4 3 3 3
6 7 7 7 7 8 9 9 9 10 11 10 11 11 11 11 10 10 11 12 12 13 13 13 13 13 11 10 10 10 11 10 10 10 9 8 7 5 5 4 4 4 3
6 7 7 8 8 9 9 9 10 10 10 10 11 12 12 10 4 4 10 13 13 13 13 13 13 13 13 14 15 15 14 13 12 11 10 9 8 7 5 5 4 5 4
6 7 8 8 9 9 9 10 10 10 10 11 11 12 12 11 7 8 10 12 14 14 13 12 12 12 11 13 15 19 19 19 17 14 13 11 9 8 8 9 7 6 4
7 7 8 8 9 9 10 10 10 10 10 10 11 11 12 11 7 9 10 13 14 14 14 14 13 13 13 12 13 13 14 15 17 16 15 12 10 7 7 8 6 6 4
7 7 8 8 9 10 10 10 10 10 10 11 11 11 12 12 9 9 10 11 12 14 14 13 13 13 11 9 12 13 14 13 12 13 12 9 6 4 4 6 7 6 5
7 7 8 8 9 10 10 11 10 10 11 11 11 11 12 12 9 8 9 10 11 11 11 11 12 13 10 8 12 13 14 13 12 11 12 12 12 10 9 9 8 7 6
7 8 8 8 9 10 10 10 10 10 11 11 12 11 11 11 10 9 10 9 11 10 9 9 7 11 13 11 12 13 12 11 11 11 10 11 11 10 11 11 10 8 7
7 8 9 9 9 9 9 10 10 10 11 11 10 11 10 9 8 7 9 12 12 12 10 9 6 6 10 12 12 12 10 9 10 9 9 10 10 10 10 10 10 10 7
8 9 9 10 9 9 10 10 10 9 9 9 9 9 9 8 6 8 10 12 13 11 10 9 7 5 8 11 14 13 11 11 11 10 10 10 10 9 8 8 9 8 8
9 9 9 9 10 9 8 9 9 9 9 9 9 9 9 8 7 5 5 6 10 11 11 9 11 12 12 11 8 11 11 10 10 10 10 9 8 8 8 8 8 8 7
9 9 10 10 9 9 9 8 10 10 9 10 10 10 10 10 6 5 7 8 7 6 7 7 7 7 8 9 9 9 9 10 10 10 9 8 8 8 8 8 8 8 8
9 9 9 8 7 8 9 9 9 12 12 13 14 13 11 11 11 10 10 10 11 9 7 8 8 8 8 8 8 8 8 9 9 9 9 9 9 9 9 8 8 8 8
10 10 9 9 8 9 9 10 10 9 11 15 16 15 16 14 13 13 12 11 11 9 8 9 8 8 8 8 8 8 9 9 8 9 9 9 8 8 9 9 9 9 8
10 10 9 9 9 9 9 9 9 10 10 8 7 13 14 14 14 14 11 8 8 8 8 8 8 7 7 7 7 7 7 7 8 8 8 8 9 8 8 9 9 10 9
10 9 8 8 9 9 9 9 9 10 9 9 8 5 8 10 13 12 9 7 8 7 6 7 7 6 6 6 6 7 7 7 7 8 8 8 8 8 9 9 9 10 9
9 10 9 9 10 9 9 9 9 9 9 8 8 7 5 5 6 5 6 6 6 6 6 6 5 5 5 6 6 6 6 7 7 7 8 8 8 8 9 10 9 9 9
8 7 8 9 10 9 8 9 9 9 8 8 7 5 4 7 7 7 6 5 5 5 6 6 5 5 5 5 6 7 8 7 7 8 8 8 8 8 8 8 9 9 9
9 8 8 8 8 8 8 8 9 9 8 8 7 5 3 6 6 6 6 5 5 5 5 5 5 4 4 5 6 6 7 7 7 8 8 8 8 8 8 8 8 8 8
9 10 8 8 8 7 8 9 8 8 7 7 7 6 5 5 6 5 5 5 4 4 4 4 4 4 5 5 5 6 6 7 7 8 8 8 8 8 8 9 10 9 9
9 9 9 8 7 7 8 8 8 8 7 6 7 6 5 5 5 6 5 4 4 3 3 4 4 5 6 6 5 5 6 5 6 7 10 8 8 8 8 8 9 11 10
8 8 8 7 7 7 7 7 7 7 6 6 6 6 5 5 5 4 4 3 4 3 3 3 4 5 7 8 7 5 3 2 2 4 8 8 9 9 9 10 9 10 10
8 8 7 6 6 6 7 7 6 6 5 5 5 5 5 5 5 5 4 3 3 2 3 2 3 5 6 7 5 2 3 3 3 3 5 7 8 8 9 8 11 10 11
Wind_Direction
272 280 290 290 293 291 286 287 288 287 287 281 280 280 279 277 274 270 270 274 268 268 268 263 259 264 265 262 257 253 252 255 265 271 275 279 277 277 269 254 241 226 202
276 280 284 289 290 289 289 292 289 285 283 282 280 278 277 276 275 271 270 271 269 267 266 266 264 260 254 257 257 256 254 255 262 269 274 275 269 261 252 245 245 226 202
284 284 287 288 290 289 292 290 288 287 286 285 281 277 277 277 276 272 270 269 268 267 266 264 263 262 260 257 255 255 253 247 245 256 261 264 268 256 243 228 210 186 164
284 284 286 290 292 292 291 289 287 287 286 284 281 278 277 275 274 272 271 270 269 266 264 262 262 259 256 256 255 252 253 254 249 249 252 252 252 249 231 218 199 170 152
282 285 289 292 291 289 288 287 287 286 284 283 281 278 276 273 269 275 281 278 274 270 265 261 258 259 269 267 267 262 255 249 248 243 243 240 239 238 229 219 205 170 159
277 285 292 293 292 291 289 287 286 285 285 284 281 280 279 277 296 287 278 283 279 272 268 264 262 249 241 234 246 259 267 264 259 255 247 241 235 234 229 226 207 189 181
277 284 289 291 292 293 293 292 291 290 287 285 283 282 281 280 266 249 251 271 273 270 267 264 263 262 248 245 232 229 239 245 253 262 262 255 243 228 225 220 208 204 193
278 283 288 290 292 293 292 292 292 291 289 287 287 286 283 280 261 246 246 260 265 264 261 259 259 262 259 257 256 249 244 235 229 232 245 251 250 246 232 231 220 199 187
279 284 289 292 293 292 292 295 295 293 289 288 286 284 281 280 262 243 245 270 264 262 260 257 256 257 251 240 253 258 258 254 240 231 238 248 259 242 237 231 211 198 195
285 289 291 289 288 289 292 294 294 291 287 287 286 285 283 281 272 242 236 267 269 269 265 259 245 245 254 225 243 249 252 251 251 228 217 220 227 220 213 228 223 209 201
290 289 287 286 285 284 287 289 290 288 288 287 288 285 281 276 271 243 227 258 272 275 272 267 258 208 220 225 238 250 254 264 257 247 235 224 219 215 212 214 220 217 209
283 283 285 286 287 289 287 286 287 286 284 282 282 284 283 275 264 254 223 236 263 276 275 273 273 198 210 221 230 243 249 255 253 245 236 227 219 214 213 211 211 215 217
279 281 285 287 286 284 284 285 284 279 280 286 289 290 291 292 274 225 229 235 239 255 270 281 287 258 234 231 231 232 231 234 238 235 231 228 223 216 212 206 205 207 207
275 281 284 283 282 283 282 282 286 291 291 291 291 291 292 293 292 288 269 247 233 241 254 256 239 237 241 255 232 214 222 229 231 231 231 228 222 210 207 205 199 192 195
274 278 281 282 284 287 282 281 284 287 291 290 294 294 294 295 315 339 307 299 302 310 305 278 262 246 231 230 231 225 220 218 221 228 228 225 217 209 205 203 200 194 196
269 274 280 283 287 286 288 287 257 249 258 250 251 262 279 279 292 293 283 274 273 276 274 262 256 250 242 234 229 223 219 219 217 218 219 217 213 208 204 201 197 199 201
264 275 282 287 288 286 289 291 295 281 244 240 241 242 245 265 274 276 274 272 264 249 245 251 252 250 244 236 230 226 222 217 214 215 213 211 211 207 202 199 195 198 201
262 267 265 273 279 283 286 287 288 293 300 299 255 229 234 244 253 259 262 266 258 229 241 251 252 249 239 233 232 227 222 215 209 210 210 209 207 203 200 200 197 197 198
262 266 271 280 282 281 283 284 284 287 290 296 303 272 224 240 242 246 240 247 268 266 254 252 251 248 240 233 232 227 221 214 208 204 203 204 205 203 203 203 200 194 198
255 253 258 275 278 278 278 282 287 291 293 296 299 306 310 292 284 263 238 251 264 267 266 263 255 244 235 229 226 220 216 210 208 208 203 202 204 203 203 204 201 195 198
266 257 231 254 267 275 282 286 290 291 293 298 302 311 308 297 295 292 283 272 270 267 262 263 254 238 226 219 219 216 212 209 205 203 201 202 202 201 202 201 200 200 199
267 268 265 269 277 280 287 289 289 290 296 299 301 302 246 274 291 294 294 289 282 273 260 255 250 239 231 220 215 213 209 208 206 202 201 201 200 200 201 201 198 196 195
263 266 267 269 271 272 271 275 282 290 297 303 303 306 308 300 299 304 302 303 292 274 266 255 245 235 227 226 225 219 212 207 204 198 200 201 200 199 200 201 199 195 198
263 265 268 272 275 277 281 286 289 293 300 306 303 303 306 306 308 313 312 308 301 288 272 256 248 237 228 228 222 220 217 215 213 204 203 205 202 199 198 201 203 200 197
267 268 269 272 278 281 285 290 295 302 308 308 308 310 312 313 315 312 312 303 291 285 280 266 252 239 231 232 232 222 157 149 241 237 204 210 210 205 202 202 203 202 196
273 270 269 273 280 283 286 292 300 303 305 306 310 315 320 321 322 320 321 320 308 296 290 279 263 250 239 236 227 174 149 168 200 254 247 220 212 206 203 208 207 204 198